Home   Weather   Sanikiluaq   Past weeks

Flag for Canada Past Weather in Sanikiluaq, Nunavut, Canada — Yesterday and Last 2 Weeks

Now
14 °F

Clear.


Feels Like: 8 °F
Forecast: 6 / 11 °F
Wind: 3 mph from Northeast

Location: Kuujjuarapik

Current Time: Jan 21, 2017 at 7:05:27 pm

Latest Report: Jan 21, 2017 at 6:00 pm


Visibility: 9 mi

Pressure: 30.02 "Hg

Humidity: 85%

Dew Point: 10 °F

Location of SanikiluaqLocation

Past Weather in Sanikiluaq — Graph

°F

Sanikiluaq Temperature Yesterday

Maximum temperature yesterday: 32 °F (at 1:50 pm)
Minimum temperature yesterday: 23 °F (at 12:00 am)
Average temperature yesterday: 28 °F

High & Low Weather Summary for the Past Weeks

 TemperatureHumidityPressure
High32 °F (Jan 20, 1:50 pm)100% (Jan 18, 3:00 pm)30.38 "Hg (Jan 18, 3:00 pm)
Low-20 °F (Jan 16, 10:00 pm)64% (Jan 10, 11:00 am)28.89 "Hg (Jan 11, 9:00 am)
Average3 °F80%29.84 "Hg
* Reported Jan 6 5:09 pm — Jan 21 5:00 pm, Sanikiluaq, Weather by CustomWeather, © 2017

Note: Actual official high and low records may vary slightly from our data, if they occured in-between our weather recording intervals... More about our weather records

Advertising

Sanikiluaq Weather History for the Previous 24 Hours

Scroll right to see more
 ConditionsComfort  
Time TempWeatherWind HumidityBarometerVisibility
5:00 pm
Sat, Jan 21
16 °FClear.3 mph93%29.99 "Hg9 mi
4:00 pm21 °FSunny.7 mph80%29.96 "Hg9 mi
3:00 pm23 °FSunny.9 mph80%29.95 "Hg9 mi
2:00 pm25 °FSunny.8 mph80%29.93 "Hg9 mi
1:00 pm27 °FScattered clouds.6 mph80%29.91 "Hg9 mi
12:00 pm25 °FScattered clouds.6 mph86%29.90 "Hg9 mi
11:00 am25 °FOvercast.7 mph86%29.90 "Hg9 mi
10:00 am25 °FOvercast.6 mph86%29.89 "Hg9 mi
9:00 am23 °FOvercast.5 mph93%29.88 "Hg9 mi
8:00 am23 °FOvercast.6 mph93%29.87 "Hg9 mi
7:10 am23 °FOvercast.7 mph93%29.85 "Hg9 mi
6:00 am23 °FLow clouds.5 mph93%29.82 "Hg9 mi
5:00 am21 °FOvercast.5 mph93%29.81 "Hg9 mi
4:00 am21 °FOvercast.6 mph93%29.80 "Hg9 mi
3:12 am21 °FOvercast.6 mph93%29.79 "Hg9 mi
3:00 am21 °FLow clouds.3 mph93%29.79 "Hg9 mi
2:00 am21 °FLow clouds.8 mph100%29.77 "Hg9 mi
1:00 am23 °FOvercast.7 mph100%29.75 "Hg9 mi
12:00 am25 °FOvercast.8 mph93%29.73 "Hg9 mi
11:31 pm
Fri, Jan 20
25 °FLow clouds.7 mph100%29.73 "Hg9 mi
11:00 pm25 °FLow clouds.9 mph100%29.72 "Hg9 mi
10:00 pm28 °FLow clouds.7 mph93%29.69 "Hg9 mi
9:44 pm28 °FIce fog.5 mph100%29.68 "Hg2 mi
9:24 pm28 °FIce fog.6 mph100%29.68 "Hg1 mi
9:06 pm28 °FIce fog.9 mph100%29.67 "Hg1 mi
8:00 pm28 °FIce fog.7 mph100%29.66 "Hg1 mi
7:00 pm30 °FIce fog.2 mph100%29.64 "Hg3 mi
Weather by CustomWeather, © 2017

See weather overviewHow to use our weather pages